Wind_Speed
3 5 7 8 11 11 13 15 15 15 15 16 16 17 18 18 17 16 17 18 18 19 21 22 22 23 23 24 24 24 24 25 26 23 23 24 26 29 32 37 35 36 34
6 5 6 7 7 9 9 11 12 12 12 13 13 14 16 17 18 17 17 18 19 22 26 27 26 24 25 26 25 25 26 25 26 25 23 24 26 28 32 33 35 39 41
11 9 8 9 9 10 10 11 12 13 13 15 17 17 17 18 21 23 24 24 25 27 29 30 32 32 31 28 26 26 27 29 31 32 31 31 30 32 35 34 38 40 43
15 13 12 11 12 13 14 14 16 17 17 18 21 22 21 22 23 23 26 28 31 31 31 32 32 31 31 31 29 28 30 33 34 34 34 36 37 36 35 41 41 46 52
18 19 16 17 16 17 17 18 20 21 21 22 24 24 25 24 25 26 27 31 33 33 33 33 31 29 29 28 29 30 28 29 31 32 35 38 43 43 48 49 50 48 47
23 24 24 23 22 23 23 24 23 25 27 29 30 31 31 30 30 31 33 36 36 36 37 34 30 28 28 27 27 28 27 24 28 34 35 39 41 42 40 44 42 46 53
28 29 30 30 29 29 30 29 29 30 32 34 35 36 36 36 36 36 38 39 41 41 39 33 27 25 25 24 27 29 27 27 31 35 35 39 39 41 48 48 52 55 59
36 38 37 35 35 35 34 34 34 35 36 39 39 41 40 41 43 43 44 44 45 42 37 29 24 23 23 26 30 33 33 34 37 39 43 45 44 48 49 52 56 58 62
40 41 41 40 40 40 39 40 41 42 41 41 43 44 45 47 47 48 50 50 47 42 33 25 23 26 28 30 31 34 35 35 36 39 46 51 54 55 53 57 63 67 70
46 46 45 46 45 45 46 45 45 46 46 47 46 47 47 49 52 56 54 50 46 40 29 22 23 24 28 32 36 37 36 38 42 46 51 55 58 62 63 67 71 70 73
52 50 49 50 51 50 51 51 50 50 51 52 53 52 50 52 54 53 52 48 43 36 30 29 29 31 33 35 40 41 44 45 50 52 56 61 65 66 71 74 77 74 74
56 55 57 56 55 55 57 56 55 55 56 56 55 57 55 55 51 47 43 42 37 32 32 35 36 36 38 42 43 46 48 51 54 60 64 67 69 72 75 75 77 80 81
61 61 62 61 61 60 60 60 59 60 60 58 59 58 55 48 44 42 36 35 35 34 37 39 41 40 44 48 49 51 54 57 61 65 67 71 74 76 77 79 81 87 90
61 65 66 65 65 66 66 65 65 64 63 60 58 53 43 39 37 38 37 36 37 39 41 43 44 45 46 48 51 56 62 67 68 70 73 75 78 80 81 84 84 90 91
59 61 62 60 60 61 63 65 65 63 57 50 49 44 41 40 37 37 39 41 40 43 47 52 53 54 54 56 60 65 68 69 71 75 76 79 79 80 84 87 93 95 92
63 64 65 62 62 58 61 60 59 59 55 53 49 48 46 44 41 43 44 44 43 43 44 52 56 57 60 64 65 68 72 76 78 80 82 83 84 85 89 94 92 95 94
75 73 68 65 68 68 63 62 61 61 56 57 54 53 53 52 52 53 53 53 54 57 55 60 65 65 65 67 72 77 78 79 81 85 84 89 90 92 94 93 94 95 91
87 79 80 78 73 67 71 73 69 65 64 64 63 60 62 63 59 58 62 63 63 62 59 61 66 70 70 74 78 81 84 85 87 92 92 93 98 99 98 96 97 95 89
91 89 82 78 78 75 76 77 73 71 68 68 68 67 70 69 69 68 66 67 68 67 72 75 76 77 80 84 85 86 88 91 92 96 97 98 98 97 97 96 100 95 99
97 94 93 90 84 80 78 80 82 81 82 79 76 74 71 71 71 73 72 72 74 77 80 83 82 85 88 89 90 91 91 97 98 104 101 101 97 97 97 99 95 99 105
105 104 100 100 98 95 88 86 86 87 84 84 84 82 79 77 76 79 81 81 82 86 84 85 87 88 90 91 93 96 97 102 102 108 105 101 99 99 100 99 104 105 105
108 107 108 106 106 100 97 94 91 89 88 86 86 88 87 87 85 82 87 88 92 88 91 93 89 91 94 95 98 102 99 103 105 102 102 106 103 102 100 106 110 111 114
113 110 108 107 106 105 105 100 95 93 91 91 91 89 89 92 92 88 86 86 89 91 92 95 95 100 99 101 101 106 103 101 99 103 105 106 104 107 110 110 116 117 115
121 120 117 113 110 108 111 109 101 96 94 94 92 92 93 95 96 94 95 95 95 99 102 105 105 102 105 99 102 100 97 99 105 104 104 107 113 112 116 119 120 118 114
130 125 121 120 119 118 117 116 113 106 98 95 95 97 97 98 92 95 98 98 99 106 108 107 105 99 93 99 97 93 96 102 101 107 113 113 116 120 119 122 120 115 111
135 134 131 128 125 122 122 121 120 117 112 104 96 94 95 98 90 90 95 98 108 110 109 105 98 96 91 91 89 95 100 100 106 116 120 119 119 119 119 116 117 110 110
Wind_Direction
357 0 14 24 22 23 30 31 34 42 45 40 34 27 21 19 15 5 357 350 344 343 338 331 325 317 316 318 316 311 314 313 313 308 306 308 310 313 314 314 315 317 320
275 286 319 339 352 0 7 9 12 13 19 17 15 9 7 1 359 359 351 342 336 332 330 328 326 320 318 313 302 307 301 307 305 303 300 307 307 309 311 310 310 309 309
265 272 295 312 314 320 331 337 337 345 346 346 349 346 346 347 347 346 341 336 332 330 326 325 322 320 316 313 313 301 304 300 308 308 307 311 308 304 301 300 301 303 299
249 259 270 284 299 306 304 304 313 322 326 326 328 331 334 332 331 329 327 327 325 323 321 321 319 315 313 311 313 311 302 302 304 306 304 305 304 298 306 305 309 310 309
253 260 269 272 279 288 292 296 299 306 309 311 312 311 315 316 315 317 321 322 317 314 314 315 313 312 309 308 309 309 305 314 315 314 314 320 321 319 314 312 317 318 322
245 254 260 262 268 272 276 284 290 290 294 298 300 305 308 308 309 314 317 320 318 315 312 310 308 308 304 306 312 321 327 327 322 320 319 313 314 315 318 324 319 324 324
245 246 251 259 267 270 273 278 284 290 291 293 297 301 303 306 308 309 312 316 315 316 312 306 301 302 305 309 315 321 324 317 316 314 311 309 309 312 324 315 323 319 318
246 249 254 256 260 264 269 274 277 281 285 290 296 298 302 304 306 307 309 311 313 313 309 299 298 304 307 309 314 318 319 315 314 308 315 318 316 318 319 320 323 322 321
247 254 257 259 263 267 269 272 277 281 285 288 293 296 301 303 305 307 309 309 310 309 304 296 301 306 307 306 311 316 314 314 313 313 316 317 317 316 315 319 318 319 321
246 250 257 262 263 265 268 272 274 280 285 287 290 294 297 300 303 306 306 306 305 303 294 283 290 297 301 308 314 314 313 312 310 309 312 316 316 315 318 317 318 317 319
249 250 253 257 261 265 268 271 274 278 281 286 289 291 294 297 299 302 303 303 302 299 290 287 292 296 301 305 310 308 309 309 308 310 312 311 314 315 316 316 314 317 319
254 257 258 259 261 264 268 271 274 277 279 283 286 290 293 295 295 295 294 296 293 291 287 294 301 301 299 298 303 304 303 302 304 308 309 312 313 313 314 314 315 314 317
256 257 260 263 266 266 268 271 274 276 279 282 285 288 290 290 291 291 288 290 286 289 291 298 301 299 298 302 300 300 303 306 307 308 310 309 310 311 310 314 315 318 317
258 258 259 261 263 266 269 271 274 276 278 282 283 283 285 283 284 286 286 286 286 290 294 296 299 299 300 300 301 302 304 307 308 308 307 307 310 311 312 313 314 314 317
256 258 259 260 261 266 269 270 272 274 276 275 277 279 281 274 274 276 280 282 284 288 293 294 296 297 301 302 300 301 304 302 302 305 308 309 311 312 312 312 314 314 317
253 257 258 261 263 266 269 269 270 271 267 267 269 273 272 272 276 279 281 285 287 289 292 293 294 295 295 298 298 296 295 300 305 306 307 310 310 310 311 312 314 316 317
251 251 252 255 260 264 264 268 272 270 268 270 271 272 274 274 276 277 278 279 280 282 286 290 293 294 292 289 290 297 301 302 304 305 306 308 310 310 310 312 314 317 318
251 253 249 251 253 256 261 265 268 267 266 267 267 268 271 275 276 274 276 278 280 283 287 290 289 290 291 293 295 297 300 302 303 305 308 308 309 310 311 312 315 316 316
256 255 257 254 254 260 262 261 264 269 270 271 272 270 270 273 276 277 277 280 281 283 286 289 290 289 290 293 295 297 300 302 302 303 307 309 309 311 311 313 315 316 319
256 257 259 259 260 262 263 264 266 268 266 266 268 269 268 270 272 274 276 278 281 283 285 285 288 289 292 292 294 296 300 301 302 302 307 308 309 311 312 315 315 316 319
252 254 254 255 257 259 261 264 266 266 267 267 267 270 268 268 269 273 276 278 280 284 283 286 289 289 289 293 297 300 301 301 303 305 304 307 309 313 314 314 315 317 318
248 249 251 253 256 257 260 262 264 265 265 267 268 268 269 270 272 274 277 277 284 287 286 289 291 295 293 296 296 303 304 304 304 306 307 308 310 311 312 314 316 317 319
250 252 252 253 254 256 259 263 264 265 265 265 266 269 268 269 271 276 281 280 284 287 288 290 287 292 294 298 298 304 302 303 305 306 305 307 310 311 315 314 315 317 318
250 250 251 253 253 254 255 258 261 263 263 265 266 268 269 270 272 276 278 281 284 284 287 291 293 292 295 298 298 303 301 303 306 304 304 306 310 312 312 313 315 315 319
253 254 253 254 254 255 255 256 258 259 259 259 263 266 269 271 273 277 280 283 285 289 292 292 291 290 291 296 299 296 301 300 299 299 304 307 308 310 310 312 314 316 318
254 256 256 257 257 256 257 259 260 260 261 259 258 262 267 270 272 276 280 283 288 289 290 289 287 286 286 291 292 292 294 295 294 302 303 306 307 309 310 312 313 315 315
Height
10899 10899 10898 10896 10896 10895 10894 10893 10892 10891 10890 10889 10887 10886 10884 10882 10881 10878 10875 10873 10871 10869 10867 10864 10861 10858 10855 10852 10848 10845 10842 10838 10834 10831 10827 10823 10819 10814 10810 10806 10802 10798 10792
10898 10897 10897 10895 10894 10894 10893 10892 10892 10891 10890 10889 10887 10886 10884 10882 10880 10878 10876 10873 10870 10867 10863 10860 10857 10854 10851 10847 10844 10840 10837 10833 10830 10826 10822 10817 10813 10809 10804 10800 10795 10791 10786
10896 10895 10895 10894 10893 10892 10891 10890 10890 10889 10887 10886 10885 10883 10881 10878 10875 10872 10870 10869 10866 10863 10860 10856 10852 10848 10844 10841 10838 10835 10832 10829 10826 10823 10819 10814 10810 10805 10799 10794 10789 10784 10780
10893 10893 10892 10892 10891 10890 10889 10888 10887 10885 10884 10882 10881 10878 10876 10874 10872 10871 10868 10865 10861 10858 10854 10851 10848 10844 10840 10836 10833 10829 10827 10824 10821 10817 10813 10809 10805 10800 10796 10791 10785 10780 10775
10888 10888 10888 10887 10887 10886 10886 10884 10883 10882 10880 10878 10877 10876 10874 10872 10870 10868 10865 10862 10858 10853 10849 10845 10841 10838 10834 10832 10829 10826 10822 10818 10814 10811 10807 10802 10798 10794 10789 10784 10778 10771 10764
10882 10883 10883 10882 10882 10882 10881 10880 10879 10878 10877 10875 10874 10873 10871 10869 10866 10863 10860 10857 10853 10848 10843 10838 10835 10832 10829 10827 10824 10821 10817 10813 10809 10805 10800 10796 10792 10787 10782 10778 10771 10764 10758
10876 10875 10875 10876 10876 10876 10875 10875 10874 10874 10872 10870 10868 10866 10864 10862 10859 10856 10853 10850 10846 10841 10836 10830 10828 10826 10824 10822 10818 10815 10812 10809 10805 10801 10796 10791 10786 10781 10776 10770 10764 10757 10750
10868 10869 10869 10870 10870 10869 10868 10868 10868 10867 10866 10864 10862 10858 10857 10853 10850 10848 10845 10842 10838 10834 10829 10824 10821 10819 10817 10815 10812 10808 10805 10802 10799 10794 10789 10784 10779 10772 10767 10761 10754 10748 10741
10860 10859 10860 10862 10862 10861 10861 10861 10860 10858 10859 10857 10854 10851 10848 10844 10842 10839 10835 10832 10829 10826 10822 10818 10815 10812 10810 10807 10804 10801 10798 10795 10790 10786 10781 10776 10769 10764 10759 10753 10746 10738 10730
10849 10851 10851 10851 10852 10852 10851 10853 10853 10850 10849 10847 10847 10845 10843 10838 10833 10828 10826 10824 10820 10817 10815 10814 10811 10808 10804 10801 10797 10792 10789 10786 10782 10778 10773 10766 10761 10755 10750 10742 10736 10729 10720
10837 10840 10841 10841 10841 10842 10841 10842 10843 10843 10841 10839 10836 10835 10833 10831 10827 10823 10815 10813 10810 10808 10806 10807 10806 10802 10799 10795 10790 10785 10780 10776 10772 10768 10763 10757 10750 10744 10737 10729 10722 10715 10707
10826 10827 10827 10829 10831 10831 10829 10830 10831 10831 10830 10828 10826 10824 10823 10821 10817 10815 10812 10806 10804 10801 10797 10796 10796 10794 10792 10788 10783 10778 10773 10768 10764 10759 10753 10746 10739 10732 10725 10717 10708 10701 10693
10815 10814 10812 10814 10816 10818 10818 10818 10819 10819 10818 10818 10815 10813 10812 10810 10807 10804 10802 10799 10795 10794 10791 10788 10786 10784 10783 10778 10773 10769 10764 10760 10754 10748 10742 10735 10728 10721 10711 10703 10695 10686 10678
10800 10800 10802 10802 10802 10802 10803 10805 10806 10805 10805 10806 10805 10802 10802 10799 10798 10795 10792 10790 10788 10786 10782 10778 10776 10774 10772 10768 10763 10757 10753 10748 10742 10737 10730 10722 10714 10707 10697 10688 10681 10671 10661
10787 10785 10786 10788 10789 10789 10789 10790 10793 10792 10793 10793 10791 10791 10791 10788 10787 10785 10784 10780 10779 10776 10771 10765 10764 10761 10760 10756 10751 10746 10740 10734 10728 10722 10715 10707 10701 10693 10685 10677 10664 10655 10646
10769 10770 10771 10773 10774 10776 10776 10777 10780 10779 10780 10778 10778 10778 10777 10776 10777 10774 10773 10772 10770 10769 10767 10757 10752 10749 10746 10743 10737 10732 10726 10720 10714 10708 10700 10693 10686 10679 10668 10659 10650 10640 10631
10752 10754 10756 10757 10759 10760 10761 10763 10765 10766 10768 10765 10765 10764 10763 10763 10765 10764 10762 10759 10757 10754 10757 10748 10741 10738 10733 10728 10722 10715 10710 10705 10698 10690 10684 10677 10668 10662 10654 10645 10636 10624 10614
10727 10733 10738 10741 10744 10745 10745 10747 10750 10751 10755 10753 10750 10751 10749 10748 10750 10749 10747 10745 10742 10739 10740 10737 10730 10724 10718 10712 10706 10699 10693 10688 10680 10672 10668 10661 10652 10643 10635 10624 10616 10606 10595
10706 10711 10716 10723 10726 10728 10729 10731 10732 10734 10738 10738 10735 10738 10735 10734 10733 10731 10732 10730 10728 10725 10723 10721 10715 10709 10703 10696 10692 10684 10678 10671 10662 10653 10647 10641 10632 10625 10616 10607 10597 10585 10574
10687 10691 10694 10700 10705 10708 10712 10712 10712 10713 10716 10719 10719 10722 10721 10719 10717 10714 10716 10714 10712 10709 10706 10701 10698 10693 10686 10678 10676 10670 10664 10652 10643 10631 10628 10620 10613 10605 10596 10585 10573 10565 10555
10660 10665 10670 10671 10678 10687 10693 10692 10692 10692 10694 10697 10699 10703 10704 10702 10700 10699 10699 10697 10694 10691 10687 10682 10679 10674 10668 10662 10658 10652 10646 10637 10623 10614 10605 10597 10590 10583 10574 10564 10554 10544 10536
10634 10643 10647 10651 10655 10664 10671 10673 10673 10675 10675 10678 10681 10681 10685 10684 10682 10682 10684 10680 10677 10673 10669 10665 10661 10655 10649 10643 10638 10632 10625 10616 10605 10593 10582 10572 10569 10562 10553 10544 10532 10522 10513
10608 10616 10624 10630 10639 10644 10645 10648 10652 10654 10656 10659 10661 10664 10666 10665 10663 10664 10665 10662 10660 10655 10650 10644 10641 10635 10630 10625 10619 10613 10605 10593 10585 10574 10562 10553 10546 10540 10531 10521 10512 10501 10490
10576 10585 10592 10598 10610 10618 10618 10622 10628 10632 10635 10640 10643 10644 10644 10642 10645 10646 10643 10644 10640 10636 10630 10624 10620 10613 10607 10602 10599 10592 10583 10571 10563 10554 10544 10536 10526 10517 10510 10500 10489 10481 10469
10546 10557 10566 10571 10576 10586 10589 10595 10599 10606 10612 10620 10624 10622 10622 10622 10630 10626 10624 10622 10617 10616 10607 10602 10598 10595 10587 10584 10578 10574 10564 10553 10544 10533 10525 10517 10508 10499 10488 10480 10471 10459 10449
10525 10530 10536 10542 10547 10558 10560 10565 10568 10574 10582 10596 10606 10607 10604 10604 10612 10613 10608 10603 10596 10592 10585 10580 10578 10574 10571 10567 10561 10555 10549 10538 10527 10512 10506 10501 10491 10481 10472 10462 10451 10441 10429